Skip Page Navigation
NASA JPL Caltech
NASA Logo - Jet Propulsion Laboratory + View the NASA Portal
+ Near-Earth Object (NEO) Program
Search JPL
JPL Home Earth Solar System Stars & Galaxies Technology
JPL Solar System Dynamics
BODIES ORBITS EPHEMERIDES TOOLS PHYSICAL DATA DISCOVERY FAQ SITE MAP
JPL Small-Body Database Browser
Search: [ help ]  
(2004 LV3)
Classification: Apollo [NEO, PHA]          SPK-ID: 3183849
Ephemeris | Orbit Diagram | Orbital Elements | Physical Parameters | Close-Approach Data ]

[ hide orbit diagram ]
Orbit Diagram
Note: Make sure you have Java enabled on your browser to see the applet. This applet is provided as a 3D orbit visualization tool. The applet was implemented using 2-body methods, and hence should not be used for determining accurate long-term trajectories (over several years or decades) or planetary encounter circumstances. For accurate long-term ephemerides, please instead use our Horizons system.
Orbit Viewer

Additional Notes: the orbits shown in the applet are color coded. The planets are white lines, and the asteroid/comet is a blue line. The bright white line indicates the portion of the orbit that is above the ecliptic plane, and the darker portion is below the ecliptic plane. Likewise for the asteroid/comet orbit, the light blue indicates the portion above the ecliptic plane, and the dark blue the portion below the ecliptic plane.

Orbit Viewer applet originally written and kindly provided by Osamu Ajiki (AstroArts), and further modified by Ron Baalke (JPL).


Orbital Elements at Epoch 2456400.5 (2013-Apr-18.0) TDB
Reference: JPL 60 (heliocentric ecliptic J2000)
 Element Value Uncertainty (1-sigma)   Units 
e .2757935495268851 7.415e-08  
a 1.231336845447992 1.2264e-08 AU
q .8917420861786526 8.3458e-08 AU
i 35.34141019861804 1.8709e-05 deg
node 273.5088211627088 1.6134e-06 deg
peri 121.3222930858261 1.8959e-05 deg
M 87.69691358196692 1.2778e-05 deg
tp 2456278.924644606875
(2012-Dec-17.42464461)
1.608e-05 JED
period 499.0726144611429
1.37
7.4561e-06
2.041e-08
d
yr
n .7213379167051633 1.0777e-08 deg/d
Q 1.570931604717331 1.5646e-08 AU
  Orbit Determination Parameters
   # obs. used (total)      248  
   # delay obs. used      3  
   # Doppler obs. used      2  
   data-arc span      3129 days (8.57 yr)  
   first obs. used      2004-06-12  
   last obs. used      2013-01-05  
   planetary ephem.      DE405  
   SB-pert. ephem.      SB405-CPV-2  
   condition code      0  
   fit RMS      .72101  
   data source      ORB  
   producer      Otto Matic  
   solution date      2013-Jan-31 00:51:53  

Additional Information
 Earth MOID = .0104458 AU 
 T_jup = 4.989 
[ show covariance matrix ]

Ephemeris | Orbit Diagram | Orbital Elements | Physical Parameters | Close-Approach Data ]

Physical Parameter Table
Parameter Symbol Value Units Sigma Reference Notes
absolute magnitude H 18.763 mag .526 60 autocmod 2.5b

[ show close-approach data ]
Ephemeris | Orbit Diagram | Orbital Elements | Physical Parameters | Close-Approach Data ]
ABOUT SSD CREDITS/AWARDS PRIVACY/COPYRIGHT GLOSSARY LINKS
FirstGov 2013-May-20 06:59 UT
(server date/time)  
NASA Home Page
Site Manager:   Donald K. Yeomans
Webmaster  Alan B. Chamberlin